Weather History for Tampa, FL

Change the Weather History Date:

Friday, November 26, 2010

  Actual Average Record
Temperature  
Mean Temperature 75 °F 67 °F  
Max Temperature 80 °F 76 °F 85 °F (1946)
Min Temperature 70 °F 58 °F 31 °F (1950)
Degree Days  
Heating Degree Days 0 2  
Month to date heating degree days 24 32  
Since 1 July heating degree days 24 36  
Cooling Degree Days 10 4  
Month to date cooling degree days 131 149  
Year to date cooling degree days 3643 3515  
Growing Degree Days 24 (Base 50)    
Moisture  
Dew Point 67 °F    
Average Humidity 80    
Maximum Humidity 93    
Minimum Humidity 67    
Precipitation  
Precipitation 0.04 in 0.05 in 2.42 in (1918)
Month to date precipitation 2.06 1.29  
Year to date precipitation 39.79 43.57  
Sea Level Pressure  
Sea Level Pressure 29.98 in    
Wind  
Wind Speed 5 mph (South)    
Max Wind Speed 20 mph    
Max Gust Speed 24 mph    
Visibility 9 miles    
Events Rain    
T = Trace of Precipitation, MM = Missing Value Source: NWS Daily Summary

Daily Weather History Graph

Daily Weather History Graph

Search for Another Location

Airport:

Trip Planner

Search our weather history database for the weather conditions in past years. The results will help you decide how hot, cold, wet, or windy it might be!

Date:

Astronomy

Nov. 26, 2010 Rise Set
Actual Time 7:00 AM EST 5:34 PM EST
Civil Twilight 6:35 AM EST 5:59 PM EST
Nautical Twilight 6:06 AM EST 6:28 PM EST
Astronomical Twilight 5:37 AM EST 6:56 PM EST
Moon 10:32 PM EST (11/26) 11:12 AM EST (11/26)
Length of Visible Light 11h 24m
Length of Day
10h 34m
Waning Gibbous, 73% of the Moon is Illuminated
Nov 26
Waning Gibbous
Nov 28
Last Quarter
Dec 5
New
Dec 13
First Quarter
Dec 21
Full

Hourly Weather History & Observations

Time (EST) Temp. Heat Index Dew Point Humidity Pressure Visibility Wind Dir Wind Speed Gust Speed Precip Events Conditions
12:53 AM 70.0 °F - 63.0 °F 78% 30.02 in 10.0 mi Calm Calm - N/A   Mostly Cloudy
1:53 AM 69.8 °F - 62.6 °F 78% 30.01 in 10.0 mi Calm Calm - N/A   Mostly Cloudy
2:53 AM 71.6 °F - 62.6 °F 73% 30.00 in 10.0 mi Calm Calm - N/A   Mostly Cloudy
3:53 AM 71.1 °F - 64.0 °F 78% 30.00 in 10.0 mi South 3.5 mph - 0.00 in Rain Light Rain
4:53 AM 70.0 °F - 64.0 °F 81% 29.99 in 10.0 mi Calm Calm - 0.00 in   Scattered Clouds
5:53 AM 71.1 °F - 64.0 °F 78% 30.00 in 10.0 mi Calm Calm - N/A   Mostly Cloudy
6:53 AM 70.0 °F - 64.0 °F 81% 30.00 in 10.0 mi Calm Calm - N/A   Scattered Clouds
7:53 AM 70.0 °F - 64.9 °F 84% 30.00 in 10.0 mi SE 4.6 mph - N/A   Scattered Clouds
8:53 AM 73.0 °F - 66.0 °F 79% 30.00 in 10.0 mi SE 8.1 mph - N/A   Mostly Cloudy
9:53 AM 75.2 °F - 66.2 °F 73% 30.00 in 10.0 mi SSE 8.1 mph - N/A   Mostly Cloudy
10:53 AM 75.9 °F - 66.9 °F 74% 30.00 in 10.0 mi South 9.2 mph - N/A   Mostly Cloudy
11:53 AM 78.1 °F - 66.9 °F 68% 29.99 in 10.0 mi South 8.1 mph - N/A   Overcast
12:53 PM 80.1 °F 82.7 °F 68.0 °F 67% 29.96 in 10.0 mi South 16.1 mph 23.0 mph N/A   Mostly Cloudy
1:53 PM 77.0 °F - 69.1 °F 76% 29.94 in 10.0 mi South 15.0 mph - N/A   Overcast
2:10 PM 73.4 °F - 66.2 °F 78% 29.94 in 5.0 mi WSW 16.1 mph - 0.00 in Rain Light Rain
2:39 PM 71.6 °F - 64.4 °F 78% 29.93 in 10.0 mi SW 5.8 mph - 0.04 in   Overcast
2:53 PM 73.0 °F - 69.1 °F 87% 29.94 in 10.0 mi SW 9.2 mph - 0.04 in   Mostly Cloudy
3:53 PM 73.9 °F - 66.9 °F 79% 29.94 in 10.0 mi SSW 9.2 mph - 0.00 in   Mostly Cloudy
4:53 PM 73.0 °F - 66.9 °F 81% 29.95 in 10.0 mi South 6.9 mph - N/A   Scattered Clouds
5:53 PM 71.1 °F - 66.0 °F 84% 29.96 in 10.0 mi South 5.8 mph - N/A   Scattered Clouds
6:53 PM 71.1 °F - 68.0 °F 90% 29.98 in 10.0 mi SW 4.6 mph - N/A   Scattered Clouds
7:53 PM 72.0 °F - 69.1 °F 91% 29.98 in 8.0 mi SSW 4.6 mph - N/A   Scattered Clouds
8:46 PM 71.6 °F - 69.8 °F 94% 29.98 in 8.0 mi South 3.5 mph - N/A   Scattered Clouds
8:53 PM 72.0 °F - 70.0 °F 93% 29.99 in 8.0 mi South 3.5 mph - N/A   Scattered Clouds
9:33 PM 71.6 °F - 69.8 °F 94% 29.98 in 8.0 mi South 4.6 mph - N/A   Mostly Cloudy
9:49 PM 71.6 °F - 69.8 °F 94% 29.98 in 7.0 mi South 3.5 mph - N/A   Scattered Clouds
9:53 PM 72.0 °F - 69.1 °F 91% 29.98 in 7.0 mi South 4.6 mph - N/A   Scattered Clouds
10:53 PM 71.1 °F - 69.1 °F 93% 29.99 in 9.0 mi South 3.5 mph - N/A   Scattered Clouds
11:53 PM 71.1 °F - 70.0 °F 96% 29.99 in 7.0 mi Calm Calm - N/A   Mostly Cloudy